Weather in Samtredia

Georgia     42°09′54″N   42°20′51″E
temp.,
°C
wind,
m/s
gust,
m/s
humid.,
%
clouds,
%
prec.,
mm/h
press.,
hPa
HPBL,
m
19 april, mon
mon1901:00+15e3893100 0.4 1018208
04:00+15ene4790100 0.8 1018156
07:00+15e599189 0.4 1017232
10:00+20e6974100 0.6 1016432
13:00+25ene2352100 0.0 1015596
16:00+27ene1244100 0.0 1013772
19:00+23sse1163100 0.0 101211
22:00+20nne3466100 0.0 101461
20 april, tue
tue2001:00+18ene61073100 0.1 1014238
04:00+18e81674100 0.2 1010425
07:00+18e81870100 0.0 1007441
10:00+21e81960100 0.0 1007497
13:00+17wsw91476100 0.0 1010403
16:00+16wsw8983100 0.0 1013636
19:00+14ne238796 0.8 1013345
22:00+12wnw3497100 5.0 1016283
21 april, wed
wed2101:00+13sw1296100 5.1 1016171
04:00+12wsw4597100 9.3 1016433
07:00+12wsw3595100 0.1 1016392
10:00+12wsw3690100 0.4 1019576
13:00+12wsw4591100 0.4 1019645
16:00+12wsw4692100 0.6 1020518
19:00+11wnw2592100 0.1 1021305
22:00+11nne1192100 0.1 102220
22 april, thu
thu2201:00+11e119178 0.0 102134
04:00+10e1193100 0.0 102112
07:00+10w119399 0.0 102257
10:00+12ne118688 0.0 1022273
13:00+17s016326 0.0 10221025
16:00+19w446298 0.1 10211423
19:00+13wsw5877100 0.0 1022460
22:00+11wsw3885100 0.0 1024382
23 april, fri
fri2301:00+11wsw2584100 0.0 1024280
04:00+10wsw119161 0.0 102411
07:00+10ene22936 0.0 102447
10:00+15e22720 0.0 1023601
13:00+19nnw115112 0.0 1021969
16:00+21wnw23476 0.0 10201172
19:00+18wnw336965 0.0 101978
22:00+12wsw11767 0.0 102111